Weather History for Tomahawk, WI

Change the Weather History Date:

Sunday, March 11, 2012

  Actual Average (KRHI) Record (KRHI)
Temperature  
Mean Temperature 48 °F 25 °F  
Max Temperature 59 °F 35 °F 59 °F (2012)
Min Temperature 37 °F 15 °F -34 °F (1948)
Degree Days  
Heating Degree Days 17 40  
Month to date heating degree days 464  
Since 1 July heating degree days 7086  
Cooling Degree Days 0 0  
Month to date cooling degree days 0  
Year to date cooling degree days 0  
Moisture  
Dew Point 28 °F    
Average Humidity 46    
Maximum Humidity 70    
Minimum Humidity 29    
Precipitation  
Precipitation 0.00 in 0.05 in 1.44 in (1973)
Month to date precipitation 0.48  
Year to date precipitation 2.52  
Snow  
Snow 0.00 in - 5.30 in (2013)
Month to date snowfall  
Since 1 July snowfall  
Snow Depth -    
Sea Level Pressure  
Sea Level Pressure 30.00 in    
Wind  
Wind Speed 4 mph (SSW)    
Max Wind Speed 9 mph    
Max Gust Speed 20 mph    
Visibility 10 miles    
Events      
T = Trace of Precipitation, MM = Missing Value Source: NWS Daily Summary

Daily Weather History Graph

Daily Weather History Graph

Search for Another Location

Airport:

Trip Planner

Search our weather history database for the weather conditions in past years. The results will help you decide how hot, cold, wet, or windy it might be!

Date:

Astronomy

Mar. 11, 2012 Rise Set
Actual Time 7:18 AM CDT 7:00 PM CDT
Civil Twilight 6:48 AM CDT 7:30 PM CDT
Nautical Twilight 6:14 AM CDT 8:04 PM CDT
Astronomical Twilight 5:39 AM CDT 8:39 PM CDT
Moon 11:41 PM CDT (3/11) 8:39 AM CDT (3/11)
Length of Visible Light 12h 41m
Length of Day
11h 42m
Waning Gibbous, 85% of the Moon is Illuminated
Mar 11
Waning Gibbous
Mar 14
Last Quarter
Mar 22
New
Mar 30
First Quarter
Apr 6
Full

Hourly Weather History & Observations

Time (CDT) Temp. Windchill Dew Point Humidity Pressure Visibility Wind Dir Wind Speed Gust Speed Precip Events Conditions
12:15 AM 41.0 °F 39.0 °F 26.6 °F 57% 29.97 in 10.0 mi South 3.5 mph - N/A   Clear
12:35 AM 41.0 °F - 26.6 °F 57% 29.98 in 10.0 mi Calm Calm - N/A   Clear
12:55 AM 41.0 °F 39.0 °F 26.6 °F 57% 29.98 in 10.0 mi SSW 3.5 mph - N/A   Clear
1:15 AM 41.0 °F 39.0 °F 26.6 °F 57% 29.99 in 10.0 mi South 3.5 mph - N/A   Clear
1:35 AM 42.8 °F 40.1 °F 26.6 °F 53% 29.99 in 10.0 mi SSW 4.6 mph - N/A   Clear
1:55 AM 42.8 °F 40.1 °F 26.6 °F 53% 30.00 in 10.0 mi SSW 4.6 mph - N/A   Clear
3:15 AM 44.6 °F 41.4 °F 26.6 °F 49% 30.00 in 10.0 mi SSW 5.8 mph - N/A   Clear
3:35 AM 44.6 °F 40.7 °F 26.6 °F 49% 30.00 in 10.0 mi SW 6.9 mph - N/A   Clear
3:55 AM 44.6 °F 41.4 °F 26.6 °F 49% 30.00 in 10.0 mi SW 5.8 mph - N/A   Clear
4:15 AM 44.6 °F 43.1 °F 26.6 °F 49% 29.99 in 10.0 mi SSW 3.5 mph - N/A   Clear
4:35 AM 44.6 °F 42.2 °F 26.6 °F 49% 29.99 in 10.0 mi SSW 4.6 mph - N/A   Clear
4:55 AM 42.8 °F - 26.6 °F 53% 29.99 in 10.0 mi Calm Calm - N/A   Clear
5:15 AM 42.8 °F 41.1 °F 26.6 °F 53% 29.99 in 10.0 mi SSW 3.5 mph - N/A   Clear
5:35 AM 42.8 °F - 26.6 °F 53% 29.99 in 10.0 mi Calm Calm - N/A   Clear
5:55 AM 39.2 °F - 26.6 °F 61% 29.99 in 10.0 mi Calm Calm - N/A   Clear
6:15 AM 39.2 °F 37.0 °F 26.6 °F 61% 30.00 in 10.0 mi South 3.5 mph - N/A   Clear
6:35 AM 39.2 °F 37.0 °F 26.6 °F 61% 30.00 in 10.0 mi South 3.5 mph - N/A   Clear
7:35 AM 37.4 °F 34.9 °F 26.6 °F 65% 30.02 in 10.0 mi South 3.5 mph - N/A   Clear
7:55 AM 37.4 °F 34.9 °F 28.4 °F 70% 30.03 in 10.0 mi SSW 3.5 mph - N/A   Clear
8:15 AM 39.2 °F 37.0 °F 28.4 °F 65% 30.03 in 10.0 mi South 3.5 mph - N/A   Clear
8:35 AM 41.0 °F 39.0 °F 28.4 °F 61% 30.04 in 10.0 mi South 3.5 mph - N/A   Clear
8:55 AM 42.8 °F 40.1 °F 28.4 °F 57% 30.04 in 10.0 mi SSW 4.6 mph - N/A   Clear
9:15 AM 46.4 °F 44.3 °F 28.4 °F 50% 30.05 in 10.0 mi SSW 4.6 mph - N/A   Clear
9:35 AM 46.4 °F 43.5 °F 28.4 °F 50% 30.05 in 10.0 mi SSW 5.8 mph - N/A   Clear
9:55 AM 50.0 °F - 28.4 °F 43% 30.05 in 10.0 mi SW 8.1 mph 18.4 mph N/A   Clear
10:15 AM 50.0 °F - 28.4 °F 43% 30.05 in 10.0 mi SSW 4.6 mph - N/A   Clear
10:35 AM 51.8 °F - 28.4 °F 41% 30.06 in 10.0 mi SW 4.6 mph - N/A   Clear
10:55 AM 51.8 °F - 28.4 °F 41% 30.05 in 10.0 mi SSW 5.8 mph - N/A   Clear
11:15 AM 51.8 °F - 28.4 °F 41% 30.05 in 10.0 mi SW 6.9 mph - N/A   Clear
11:35 AM 53.6 °F - 28.4 °F 38% 30.05 in 10.0 mi SW 9.2 mph - N/A   Clear
11:55 AM 53.6 °F - 28.4 °F 38% 30.05 in 10.0 mi SSW 8.1 mph - N/A   Clear
12:15 PM 55.4 °F - 28.4 °F 36% 30.05 in 10.0 mi SSW 6.9 mph - N/A   Clear
12:35 PM 55.4 °F - 28.4 °F 36% 30.05 in 10.0 mi SSW 4.6 mph - N/A   Clear
12:55 PM 55.4 °F - 28.4 °F 36% 30.05 in 10.0 mi SSW 4.6 mph - N/A   Clear
1:15 PM 55.4 °F - 28.4 °F 36% 30.04 in 10.0 mi SW 6.9 mph 19.6 mph N/A   Clear
1:35 PM 55.4 °F - 28.4 °F 36% 30.04 in 10.0 mi SSW 6.9 mph - N/A   Clear
1:55 PM 57.2 °F - 28.4 °F 33% 30.04 in 10.0 mi SSW 8.1 mph - N/A   Clear
2:15 PM 59.0 °F - 28.4 °F 31% 30.03 in 10.0 mi SSW 5.8 mph - N/A   Clear
2:35 PM 57.2 °F - 30.2 °F 36% 30.02 in 10.0 mi South 6.9 mph - N/A   Clear
2:55 PM 59.0 °F - 30.2 °F 34% 30.02 in 10.0 mi SSW 8.1 mph - N/A   Clear
3:15 PM 59.0 °F - 30.2 °F 34% 30.01 in 10.0 mi SSW 6.9 mph 16.1 mph N/A   Clear
3:35 PM 59.0 °F - 30.2 °F 34% 30.00 in 10.0 mi South 6.9 mph - N/A   Clear
4:35 PM 59.0 °F - 26.6 °F 29% 29.99 in 10.0 mi South 6.9 mph - N/A   Clear
4:55 PM 59.0 °F - 26.6 °F 29% 29.98 in 10.0 mi South 6.9 mph - N/A   Clear
5:15 PM 59.0 °F - 28.4 °F 31% 29.98 in 10.0 mi South 5.8 mph - N/A   Clear
5:35 PM 57.2 °F - 28.4 °F 33% 29.97 in 10.0 mi Calm Calm - N/A   Clear
5:55 PM 53.6 °F - 28.4 °F 38% 29.97 in 10.0 mi SSE 3.5 mph - N/A   Clear
6:35 PM 50.0 °F - 28.4 °F 43% 29.97 in 10.0 mi Calm Calm - N/A   Clear
6:55 PM 50.0 °F - 28.4 °F 43% 29.98 in 10.0 mi Calm Calm - N/A   Clear
7:15 PM 46.4 °F - 28.4 °F 50% 29.99 in 10.0 mi Calm Calm - N/A   Clear
7:35 PM 46.4 °F - 28.4 °F 50% 29.99 in 10.0 mi Calm Calm - N/A   Clear
7:55 PM 48.2 °F - 28.4 °F 46% 29.98 in 10.0 mi Calm Calm - N/A   Clear
8:15 PM 50.0 °F - 26.6 °F 40% 29.97 in 10.0 mi Calm Calm - N/A   Scattered Clouds
8:35 PM 48.2 °F - 26.6 °F 43% 29.97 in 10.0 mi Calm Calm - N/A   Scattered Clouds
8:55 PM 46.4 °F - 26.6 °F 46% 29.97 in 10.0 mi Calm Calm - N/A   Clear
9:15 PM 46.4 °F - 26.6 °F 46% 29.97 in 10.0 mi Calm Calm - N/A   Scattered Clouds
9:35 PM 46.4 °F - 26.6 °F 46% 29.97 in 10.0 mi Calm Calm - N/A   Scattered Clouds
9:55 PM 46.4 °F - 26.6 °F 46% 29.96 in 10.0 mi Calm Calm - N/A   Clear
10:15 PM 46.4 °F 45.2 °F 26.6 °F 46% 29.96 in 10.0 mi SSE 3.5 mph - N/A   Clear
10:35 PM 48.2 °F - 26.6 °F 43% 29.95 in 10.0 mi SSE 3.5 mph - N/A   Clear
10:55 PM 46.4 °F 45.2 °F 26.6 °F 46% 29.95 in 10.0 mi SE 3.5 mph - N/A   Clear
11:15 PM 46.4 °F 45.2 °F 26.6 °F 46% 29.94 in 10.0 mi SE 3.5 mph - N/A   Clear
11:35 PM 46.4 °F - 26.6 °F 46% 29.93 in 10.0 mi Calm Calm - N/A   Clear
11:55 PM 44.6 °F - 26.6 °F 49% 29.92 in 10.0 mi Calm Calm - N/A   Clear
12:15 AM 44.6 °F 43.1 °F 28.4 °F 53% 29.91 in 10.0 mi SE 3.5 mph - N/A   Clear
12:35 AM 46.4 °F 44.3 °F 28.4 °F 50% 29.90 in 10.0 mi SE 4.6 mph - N/A   Scattered Clouds
12:55 AM 46.4 °F 45.2 °F 28.4 °F 50% 29.88 in 10.0 mi ESE 3.5 mph - N/A   Mostly Cloudy